TimeCDT,TemperatureF,Dew PointF,Humidity,Sea Level PressureIn,VisibilityMPH,Wind Direction,Wind SpeedMPH,Gust SpeedMPH,PrecipitationIn,Events,Conditions,WindDirDegrees,DateUTC
12:15 AM,55.4,48.2,77,30.19,10.0,South,4.6,-,N/A,,Mostly Cloudy,170,2012-10-12 05:15:00
12:35 AM,55.4,48.2,77,30.18,10.0,South,5.8,-,N/A,,Mostly Cloudy,180,2012-10-12 05:35:00
12:55 AM,55.4,48.2,77,30.18,10.0,South,3.5,-,N/A,,Mostly Cloudy,180,2012-10-12 05:55:00
1:15 AM,55.4,48.2,77,30.18,10.0,South,3.5,-,N/A,,Mostly Cloudy,170,2012-10-12 06:15:00
1:35 AM,55.4,48.2,77,30.19,10.0,Calm,Calm,-,N/A,,Overcast,0,2012-10-12 06:35:00
2:15 AM,57.2,50.0,77,30.18,10.0,South,3.5,-,N/A,,Overcast,180,2012-10-12 07:15:00
2:35 AM,57.2,50.0,77,30.18,10.0,Calm,Calm,-,N/A,,Overcast,0,2012-10-12 07:35:00
3:15 AM,57.2,50.0,77,30.19,10.0,North,8.1,-,N/A,,Overcast,10,2012-10-12 08:15:00
3:35 AM,59.0,51.8,77,30.19,10.0,NE,3.5,-,N/A,,Overcast,50,2012-10-12 08:35:00
3:55 AM,59.0,51.8,77,30.19,10.0,North,5.8,-,N/A,,Overcast,10,2012-10-12 08:55:00
4:16 AM,57.2,50.0,77,30.19,7.0,NNE,6.9,-,N/A,,Overcast,30,2012-10-12 09:16:00
4:35 AM,57.2,50.0,77,30.20,10.0,NE,5.8,-,N/A,,Overcast,40,2012-10-12 09:35:00
4:55 AM,57.2,48.2,72,30.21,10.0,NE,6.9,-,N/A,,Overcast,40,2012-10-12 09:55:00
5:16 AM,57.2,48.2,72,30.21,7.0,NE,4.6,-,N/A,,Overcast,50,2012-10-12 10:16:00
5:35 AM,57.2,48.2,72,30.22,10.0,NE,5.8,-,N/A,,Overcast,40,2012-10-12 10:35:00
5:55 AM,57.2,48.2,72,30.23,10.0,NNE,4.6,-,N/A,,Overcast,30,2012-10-12 10:55:00
6:15 AM,57.2,48.2,72,30.23,10.0,NE,9.2,-,N/A,,Overcast,50,2012-10-12 11:15:00
6:35 AM,57.2,48.2,72,30.24,10.0,NNE,6.9,-,N/A,Thunderstorm,Overcast,30,2012-10-12 11:35:00
6:56 AM,57.2,48.2,72,30.24,7.0,Calm,Calm,-,N/A,,Overcast,0,2012-10-12 11:56:00
7:15 AM,57.2,50.0,77,30.25,7.0,ENE,3.5,-,N/A,,Overcast,70,2012-10-12 12:15:00
7:55 AM,57.2,50.0,77,30.26,5.0,NE,4.6,-,N/A,Thunderstorm,Thunderstorm,50,2012-10-12 12:55:00
8:15 AM,57.2,50.0,77,30.27,1.5,ENE,3.5,-,N/A,Thunderstorm,Overcast,70,2012-10-12 13:15:00
8:35 AM,57.2,50.0,77,30.29,4.0,Calm,Calm,-,N/A,Thunderstorm,Thunderstorm,0,2012-10-12 13:35:00
9:15 AM,57.2,50.0,77,30.30,2.5,Calm,Calm,-,N/A,,Overcast,0,2012-10-12 14:15:00
9:36 AM,57.2,51.8,82,30.29,3.0,East,3.5,-,N/A,,Mostly Cloudy,100,2012-10-12 14:36:00
9:55 AM,57.2,51.8,82,30.30,2.5,ENE,5.8,-,N/A,,Overcast,60,2012-10-12 14:55:00
10:35 AM,57.2,51.8,82,30.30,4.0,NE,8.1,-,N/A,,Overcast,50,2012-10-12 15:35:00
10:55 AM,57.2,51.8,82,30.32,10.0,NE,6.9,-,0.06,,Overcast,40,2012-10-12 15:55:00
11:15 AM,59.0,51.8,77,30.32,10.0,NE,5.8,-,N/A,,Overcast,40,2012-10-12 16:15:00
11:35 AM,59.0,51.8,77,30.32,10.0,North,8.1,-,N/A,,Overcast,10,2012-10-12 16:35:00
12:15 PM,59.0,51.8,77,30.33,10.0,North,5.8,-,N/A,,Overcast,360,2012-10-12 17:15:00
12:35 PM,60.8,51.8,72,30.32,10.0,North,5.8,-,N/A,,Overcast,10,2012-10-12 17:35:00
1:35 PM,60.8,53.6,77,30.28,8.0,ENE,10.4,-,N/A,,Mostly Cloudy,70,2012-10-12 18:35:00
1:55 PM,60.8,53.6,77,30.26,7.0,ENE,10.4,-,N/A,,Mostly Cloudy,60,2012-10-12 18:55:00
2:15 PM,60.8,53.6,77,30.25,10.0,East,5.8,-,N/A,,Overcast,80,2012-10-12 19:15:00
2:35 PM,62.6,53.6,72,30.23,9.0,East,6.9,-,N/A,,Overcast,80,2012-10-12 19:35:00
2:55 PM,62.6,53.6,72,30.24,10.0,East,10.4,-,N/A,,Overcast,90,2012-10-12 19:55:00
3:35 PM,62.6,53.6,72,30.27,9.0,NE,5.8,-,N/A,,Overcast,40,2012-10-12 20:35:00
3:55 PM,62.6,53.6,72,30.27,9.0,NE,5.8,-,N/A,,Overcast,50,2012-10-12 20:55:00
4:15 PM,62.6,53.6,72,30.27,8.0,NE,4.6,-,N/A,,Overcast,50,2012-10-12 21:15:00
4:35 PM,62.6,53.6,72,30.26,7.0,NE,6.9,-,N/A,,Overcast,50,2012-10-12 21:35:00
6:15 PM,60.8,53.6,77,30.25,8.0,ENE,5.8,-,N/A,,Overcast,70,2012-10-12 23:15:00
6:55 PM,60.8,53.6,77,30.25,10.0,ENE,5.8,-,N/A,,Overcast,70,2012-10-12 23:55:00
7:15 PM,60.8,53.6,77,30.24,10.0,NE,6.9,-,N/A,,Overcast,50,2012-10-13 00:15:00
7:35 PM,60.8,53.6,77,30.24,10.0,East,5.8,-,N/A,,Overcast,80,2012-10-13 00:35:00
8:15 PM,60.8,53.6,77,30.26,10.0,NE,6.9,-,N/A,,Overcast,50,2012-10-13 01:15:00
8:35 PM,60.8,53.6,77,30.25,10.0,East,4.6,-,N/A,,Overcast,90,2012-10-13 01:35:00
9:15 PM,60.8,53.6,77,30.25,10.0,East,3.5,-,N/A,,Overcast,90,2012-10-13 02:15:00
9:35 PM,-9999,-9999,N/A,30.25,10.0,ESE,4.6,-,N/A,,Overcast,110,2012-10-13 02:35:00
9:55 PM,60.8,53.6,77,30.26,9.0,East,5.8,-,N/A,,Overcast,80,2012-10-13 02:55:00
10:16 PM,60.8,53.6,77,30.24,8.0,East,4.6,-,N/A,,Overcast,90,2012-10-13 03:16:00
10:35 PM,60.8,53.6,77,30.24,7.0,East,4.6,-,N/A,,Overcast,100,2012-10-13 03:35:00
10:55 PM,60.8,53.6,77,30.25,7.0,East,3.5,-,N/A,,Overcast,100,2012-10-13 03:55:00
11:35 PM,60.8,53.6,77,30.24,5.0,ESE,5.8,-,N/A,,Overcast,110,2012-10-13 04:35:00
11:55 PM,60.8,53.6,77,30.24,5.0,East,4.6,-,N/A,,Overcast,80,2012-10-13 04:55:00